Weather History for Somerville, NJ

Change the Weather History Date:

Tuesday, June 25, 2013

  Actual Average Record
Temperature  
Mean Temperature 78 °F -  
Max Temperature 91 °F 82 °F 98 °F (1949)
Min Temperature 64 °F 57 °F 46 °F (1979)
Cooling Degree Days 12    
Growing Degree Days 28 (Base 50)    
Moisture  
Dew Point 66 °F    
Average Humidity 86    
Maximum Humidity 100    
Minimum Humidity 45    
Precipitation  
Precipitation 0.04 in - - ()
Sea Level Pressure  
Sea Level Pressure 29.93 in    
Wind  
Wind Speed 1 mph (SSW)    
Max Wind Speed 8 mph    
Max Gust Speed -    
Visibility 4 miles    
Events Fog , Rain    
Averages and records for this station are not official NWS values.
T = Trace of Precipitation, MM = Missing Value Source: NWS Daily Summary

Daily Weather History Graph

Daily Weather History Graph

Search for Another Location

Airport:

Trip Planner

Search our weather history database for the weather conditions in past years. The results will help you decide how hot, cold, wet, or windy it might be!

Date:

Astronomy

Jun. 25, 2013 Rise Set
Actual Time 5:29 AM EDT 8:33 PM EDT
Civil Twilight 4:55 AM EDT 9:06 PM EDT
Nautical Twilight 4:13 AM EDT 9:49 PM EDT
Astronomical Twilight 3:23 AM EDT 10:39 PM EDT
Moon 10:16 PM EDT (6/25) 8:06 AM EDT (6/25)
Length of Visible Light 16h 11m
Length of Day
15h 04m
Waning Gibbous, 93% of the Moon is Illuminated
Jun 25
Waning Gibbous
Jun 30
Last Quarter
Jul 8
New
Jul 15
First Quarter
Jul 22
Full

Hourly Weather History & Observations

Time (EDT) Temp. Heat Index Dew Point Humidity Pressure Visibility Wind Dir Wind Speed Gust Speed Precip Events Conditions
12:53 AM 68.0 °F - 66.9 °F 96% 29.99 in 7.0 mi Calm Calm - 0.01 in   Clear
1:11 AM 66.2 °F - 66.2 °F 100% 29.98 in 2.5 mi Calm Calm - N/A   Clear
1:27 AM 66.2 °F - 66.2 °F 100% 29.98 in 3.0 mi Calm Calm - N/A   Clear
1:49 AM 66.2 °F - 64.4 °F 94% 29.97 in 1.8 mi Calm Calm - N/A   Clear
1:53 AM 66.0 °F - 64.9 °F 96% 29.96 in 1.2 mi Calm Calm - N/A   Clear
2:05 AM 66.2 °F - 64.4 °F 94% 29.97 in 2.0 mi Calm Calm - N/A   Clear
2:08 AM 66.2 °F - 64.4 °F 94% 29.97 in 0.8 mi Calm Calm - N/A   Clear
2:13 AM 64.4 °F - 64.4 °F 100% 29.97 in 0.2 mi Calm Calm - N/A Fog Fog
2:28 AM 66.2 °F - 64.4 °F 94% 29.96 in 0.5 mi Calm Calm - N/A Fog Fog
2:53 AM 64.9 °F - 64.0 °F 97% 29.96 in 0.5 mi Calm Calm - N/A Fog Fog
2:57 AM 64.4 °F - 64.4 °F 100% 29.96 in 1.2 mi Calm Calm - N/A   Partly Cloudy
3:07 AM 64.4 °F - 64.4 °F 100% 29.95 in 0.8 mi Calm Calm - N/A   Mist
3:33 AM 64.4 °F - 64.4 °F 100% 29.95 in 1.5 mi Calm Calm - N/A   Partly Cloudy
3:40 AM 64.4 °F - 62.6 °F 94% 29.95 in 2.0 mi Calm Calm - N/A   Partly Cloudy
3:44 AM 64.4 °F - 62.6 °F 94% 29.95 in 1.0 mi Calm Calm - N/A   Mist
3:53 AM 64.0 °F - 63.0 °F 96% 29.96 in 0.5 mi Calm Calm - N/A Fog Fog
4:01 AM 64.4 °F - 62.6 °F 94% 29.96 in 1.2 mi Calm Calm - N/A   Partly Cloudy
4:10 AM 64.4 °F - 62.6 °F 94% 29.96 in 2.0 mi Calm Calm - N/A   Partly Cloudy
4:29 AM 64.4 °F - 64.4 °F 100% 29.95 in 1.2 mi Calm Calm - N/A   Clear
4:46 AM 64.4 °F - 62.6 °F 94% 29.95 in 2.0 mi Calm Calm - N/A   Clear
4:48 AM 64.4 °F - 62.6 °F 94% 29.94 in 1.2 mi Calm Calm - N/A   Partly Cloudy
4:50 AM 64.4 °F - 62.6 °F 94% 29.94 in 0.8 mi Calm Calm - N/A   Mist
4:53 AM 64.9 °F - 64.0 °F 97% 29.94 in 0.8 mi Calm Calm - N/A   Mist
5:13 AM 64.4 °F - 62.6 °F 94% 29.95 in 0.2 mi Calm Calm - N/A Fog Fog
5:21 AM 64.4 °F - 62.6 °F 94% 29.95 in 0.5 mi Calm Calm - N/A Fog Fog
5:28 AM 64.4 °F - 64.4 °F 100% 29.95 in 1.2 mi Calm Calm - N/A   Scattered Clouds
5:35 AM 64.4 °F - 62.6 °F 94% 29.95 in 0.8 mi Calm Calm - N/A   Mist
5:49 AM 64.4 °F - 62.6 °F 94% 29.95 in 0.2 mi Calm Calm - N/A Fog Fog
5:53 AM 64.0 °F - 63.0 °F 96% 29.95 in 0.2 mi Calm Calm - N/A Fog Fog
6:13 AM 64.4 °F - 64.4 °F 100% 29.96 in 1.2 mi South 3.5 mph - N/A   Partly Cloudy
6:15 AM 64.4 °F - 64.4 °F 100% 29.96 in 3.0 mi South 3.5 mph - N/A   Partly Cloudy
6:53 AM 68.0 °F - 66.0 °F 93% 29.96 in 4.0 mi Calm Calm - N/A   Clear
7:53 AM 73.0 °F - 69.1 °F 87% 29.96 in 9.0 mi Calm Calm - N/A   Clear
8:53 AM 77.0 °F - 68.0 °F 74% 29.96 in 10.0 mi Calm Calm - N/A   Clear
9:53 AM 82.0 °F 85.9 °F 70.0 °F 67% 29.94 in 10.0 mi Variable 4.6 mph - N/A   Clear
10:53 AM 84.9 °F 90.1 °F 71.1 °F 63% 29.94 in 10.0 mi Variable 4.6 mph - N/A   Clear
11:53 AM 88.0 °F 93.8 °F 71.1 °F 57% 29.94 in 10.0 mi Variable 4.6 mph - N/A   Clear
12:53 PM 89.1 °F 95.0 °F 71.1 °F 55% 29.91 in 10.0 mi West 4.6 mph - N/A   Clear
1:53 PM 91.0 °F 94.3 °F 66.9 °F 45% 29.89 in 10.0 mi Variable 5.8 mph - N/A   Partly Cloudy
2:53 PM 90.0 °F 93.6 °F 68.0 °F 48% 29.86 in 10.0 mi SW 8.1 mph - N/A   Scattered Clouds
3:53 PM 87.1 °F 89.2 °F 66.0 °F 49% 29.86 in 8.0 mi Variable 4.6 mph - 0.00 in Rain Light Rain
4:53 PM 77.0 °F - 73.0 °F 88% 29.86 in 8.0 mi Calm Calm - 0.03 in   Clear
5:53 PM 84.0 °F 91.2 °F 73.9 °F 72% 29.82 in 10.0 mi Calm Calm - N/A   Clear
6:53 PM 84.9 °F 87.6 °F 66.9 °F 55% 29.82 in 10.0 mi Calm Calm - N/A   Clear
7:53 PM 82.0 °F 84.1 °F 66.0 °F 58% 29.83 in 10.0 mi Calm Calm - N/A   Clear
8:53 PM 77.0 °F - 66.9 °F 71% 29.83 in 10.0 mi Calm Calm - N/A   Clear
9:53 PM 73.0 °F - 69.1 °F 87% 29.83 in 10.0 mi Calm Calm - N/A   Clear
10:53 PM 75.0 °F - 69.1 °F 82% 29.85 in 10.0 mi Calm Calm - N/A   Mostly Cloudy
11:53 PM 72.0 °F - 69.1 °F 91% 29.81 in 10.0 mi South 3.5 mph - N/A   Clear